[[{"header":{"parameterUnit":"m.s-1","parameterCategory":1,"la1":30.2991,"la2":30.254,"lo1":-89.0895,"lo2":-89.0444,"dy":0.0017,"dx":0.0017,"nx":28,"ny":28,"refTime":"2024-06-22T21:00:00:Z","depth":0,"parameterNumber":2,"parameterNumberName":"U-component_of_WINDS"},"data":[0,0,0,0,0,0,0,0,0,0,0,0,0,0,0,0,0,0,0,0,0,0,0,0,0,0,0,0,0,0,0,0,0,0,0,0,0,0,0,0,0,0,0,0,0,0,0,0,0,0,0,0,0,0,0,0,0,0,1.619,1.6192,0,1.6322,1.6324,1.6325,1.6294,1.6292,1.6289,1.6287,1.6429,1.6435,1.6441,0,0,0,0,0,0,0,0,0,0,0,0,0,1.5917,1.5923,1.619,1.6192,1.6193,1.6322,1.6324,1.6325,1.6295,1.6292,1.6289,1.6286,1.6427,1.6434,1.6442,0,0,0,0,0,0,0,0,0,0,0,0,0,1.6041,1.5924,1.619,1.6193,1.6195,1.6321,1.6324,1.6326,1.6295,1.6292,1.6288,1.6284,1.6425,1.6434,1.6443,1.6576,0,0,1.6471,1.6475,0,0,0,0,0,0,0,0,1.6034,1.6052,1.6191,1.6193,1.6195,1.6288,1.628,1.641,1.6296,1.6258,1.6287,1.6282,1.6386,1.6398,1.6431,1.6583,1.6589,1.6472,1.6477,1.6481,1.6484,0,0,0,0,0,0,0,1.6026,1.6046,1.6242,1.6193,1.6196,1.619,1.6204,1.6304,1.6342,1.6261,1.6259,1.6274,1.6386,1.6422,1.6434,1.6591,1.6471,1.648,1.6485,1.6489,1.6858,1.6862,0,0,0,0,0,0,1.6015,1.6039,1.6238,1.6246,1.6104,1.6198,1.6213,1.6262,1.634,1.6348,1.6277,1.6272,1.6408,1.6423,1.6439,1.66,1.6481,1.649,1.6495,1.6854,1.6859,1.6863,0,0,0,0,0,0,1.6009,1.6033,1.6233,1.6142,1.6167,1.6207,1.6262,1.6267,1.6303,1.6353,1.636,1.6307,1.6406,1.6426,1.6541,1.6604,1.6494,1.6502,1.6849,1.6855,1.6861,1.6922,0,0,0,0,0,0,1.6001,1.6031,1.608,1.6143,1.6172,1.6332,1.6266,1.6272,1.6318,1.6313,1.6383,1.6391,1.6405,1.6528,1.6551,1.6615,1.651,1.6843,1.6851,1.6859,1.6915,1.693,1.6943,0,0,0,0,0,1.5992,1.6094,1.6083,1.6107,1.6235,1.6335,1.6352,1.6363,1.6323,1.6374,1.6406,1.6389,1.6594,1.654,1.6565,1.6633,1.6839,1.6849,1.6858,1.6909,1.6927,1.6943,0,0,0,0,0,0,1.604,1.6103,1.6091,1.6217,1.627,1.633,1.6395,1.6383,1.6451,1.6444,1.6457,1.6474,1.6591,1.6624,1.6563,1.6766,1.6711,1.6726,1.674,1.6758,1.6772,1.6762,1.6517,0,0,0,0,0,1.6065,1.614,1.6191,1.6297,1.6324,1.6355,1.6399,1.6403,1.6461,1.6484,1.6525,1.6583,1.666,1.6711,1.6785,1.6919,1.6935,1.6979,1.6993,1.7004,1.7017,1.709,1.7111,1.6895,1.6895,1.6895,0,0,1.6119,1.6162,1.6208,1.6308,1.635,1.6428,1.6374,1.646,1.6519,1.6498,1.6608,1.664,1.6706,1.6831,1.6889,1.6862,1.708,1.7016,1.7025,1.7032,1.7102,1.7123,1.7141,1.6901,1.69,1.6899,0,0,1.6255,1.6295,1.6387,1.643,1.6494,1.6513,1.6535,1.6596,1.6616,1.6727,1.6712,1.6783,1.6917,1.6964,1.7005,1.7159,1.7145,1.7183,1.7257,1.7328,1.7345,1.736,1.7414,1.7434,1.7196,1.7196,1.7196,0,1.6314,1.6429,1.6437,1.6523,1.6568,1.655,1.6644,1.6686,1.6772,1.6804,1.6773,1.6938,1.6982,1.7117,1.7154,1.7189,1.7215,1.7175,1.7341,1.7356,1.7371,1.7423,1.7444,1.72,1.72,1.7199,1.7199,0,1.6498,1.6579,1.6646,1.6726,1.6779,1.6869,1.6891,1.6944,1.6943,1.6966,1.708,1.713,1.7214,1.7247,1.7248,1.7383,1.7364,1.7337,1.7282,1.7395,1.7445,1.7465,1.7206,1.7204,1.7203,1.7202,0,0,1.667,1.6752,1.6777,1.6813,1.6881,1.6945,1.7035,1.7114,1.7158,1.7218,1.7294,1.7407,1.7381,1.7429,1.7435,1.7498,1.7616,1.7463,1.7465,1.7489,1.7767,1.7787,1.781,1.7606,1.761,1.7613,1.7761,0,1.6813,1.6968,1.6978,1.7119,1.7194,1.7178,1.7256,1.7307,1.7331,1.74,1.7427,1.7506,1.7467,1.7495,1.7556,1.7588,1.7672,1.7578,1.7679,1.7682,1.7662,1.7836,1.7857,1.7994,1.7781,1.7784,1.7786,0,1.7001,1.7063,1.7212,1.7269,1.73,1.737,1.7443,1.7508,1.7567,1.758,1.7632,1.7629,1.7723,1.7663,1.7793,1.7728,1.777,1.7793,1.7798,1.7808,1.7741,1.7851,1.8038,1.8059,1.7817,1.7814,1.7812,0,1.7111,1.7233,1.7337,1.7368,1.7438,1.7487,1.7519,1.7573,1.762,1.7684,1.7715,1.7791,1.7832,1.7892,1.791,1.7865,1.8039,1.7981,1.8053,1.8053,1.8091,1.8088,1.8288,1.8118,1.8118,1.8117,1.8117,0,1.7269,1.7361,1.7387,1.7451,1.7554,1.7564,1.7666,1.7694,1.7743,1.7813,1.7804,1.7871,1.7891,1.7962,1.7978,1.8082,1.8101,1.8115,1.8118,1.8116,1.8114,1.8144,1.8135,1.8123,1.8122,1.8121,1.812,0,1.741,1.7431,1.7544,1.7599,1.7615,1.7688,1.7737,1.7799,1.7821,1.7911,1.7932,1.7968,1.8051,1.8074,1.8175,1.8185,1.8308,1.8302,1.8287,1.8287,1.8358,1.8351,1.8584,1.8615,1.8425,1.8426,1.8428,0,1.751,1.7579,1.7642,1.7687,1.772,1.7794,1.7841,1.7854,1.7904,1.7975,1.8029,1.811,1.8175,1.8309,1.8344,1.8421,1.8417,1.8493,1.8429,1.8424,1.8418,1.8413,1.842,1.8506,1.8508,1.8509,1.8511,0,1.7684,1.7691,1.7758,1.7829,1.7885,1.7942,1.7997,1.8035,1.8056,1.8112,1.8195,1.8246,1.8347,1.8428,1.8505,1.8539,1.8529,1.8531,1.8551,1.855,1.8538,1.8545,1.832,1.8525,1.8524,1.8523,1.8522,1.8522,1.7808,1.7868,1.7921,1.7996,1.8038,1.8089,1.815,1.8179,1.8248,1.8329,1.8333,1.8424,1.848,1.8582,1.862,1.8692,1.867,1.87,1.8708,1.8715,1.872,1.8526,1.8707,1.8706,1.8706,1.8705,1.8705,0,1.7982,1.8014,1.8083,1.8158,1.8218,1.82,1.826,1.8311,1.839,1.8442,1.8506,1.8602,1.868,1.8721,1.8799,1.8848,1.8845,1.8868,1.8865,1.8873,1.8736,1.871,1.8869,1.8869,1.8869,1.8869,1.8869,1.8869,1.8079,1.818,1.8193,1.8316,1.8349,1.8435,1.847,1.8518,1.8559,1.8666,1.8729,1.8755,1.8803,1.8884,1.8955,1.8965,1.8995,1.902,1.9028,1.8899,1.8883,1.8867,1.8842,1.9026,1.9026,1.9158,1.9159,1.916]},{"header":{"parameterUnit":"m.s-1","parameterCategory":1,"la1":30.2991,"la2":30.254,"lo1":-89.0895,"lo2":-89.0444,"dy":0.0017,"dx":0.0017,"nx":28,"ny":28,"refTime":"2024-06-22T21:00:00:Z","depth":0,"parameterNumber":3,"parameterNumberName":"V-component_of_WINDS"},"data":[0,0,0,0,0,0,0,0,0,0,0,0,0,0,0,0,0,0,0,0,0,0,0,0,0,0,0,0,0,0,0,0,0,0,0,0,0,0,0,0,0,0,0,0,0,0,0,0,0,0,0,0,0,0,0,0,0,0,3.2584,3.2585,0,3.2659,3.266,3.2661,3.2656,3.2655,3.2654,3.2653,3.2725,3.2728,3.2731,0,0,0,0,0,0,0,0,0,0,0,0,0,3.2428,3.2431,3.2584,3.2585,3.2586,3.2659,3.266,3.2661,3.2656,3.2655,3.2653,3.2652,3.2724,3.2728,3.2731,0,0,0,0,0,0,0,0,0,0,0,0,0,3.2499,3.2432,3.2583,3.2592,3.2594,3.2659,3.266,3.2661,3.2656,3.2655,3.2653,3.2651,3.2723,3.2728,3.2732,3.2792,0,0,3.2746,3.2747,0,0,0,0,0,0,0,0,3.2495,3.2504,3.259,3.2592,3.2593,3.2646,3.2632,3.2705,3.2657,3.2632,3.2653,3.2651,3.27,3.2706,3.2724,3.2796,3.2799,3.2746,3.2749,3.2751,3.2752,0,0,0,0,0,0,0,3.249,3.2501,3.2613,3.2591,3.2593,3.259,3.2598,3.2646,3.2674,3.2634,3.2634,3.2643,3.2701,3.272,3.2726,3.28,3.2746,3.275,3.2752,3.2754,3.2919,3.292,0,0,0,0,0,0,3.2484,3.2497,3.2611,3.2616,3.2539,3.2594,3.2603,3.2631,3.2674,3.2679,3.2645,3.2643,3.2713,3.272,3.2728,3.2798,3.275,3.2755,3.2757,3.2917,3.2919,3.2921,0,0,0,0,0,0,3.248,3.2494,3.2608,3.2556,3.2571,3.2598,3.263,3.2633,3.2652,3.2682,3.2686,3.2659,3.2712,3.2722,3.2775,3.28,3.2757,3.2761,3.2915,3.2918,3.292,3.294,0,0,0,0,0,0,3.2476,3.2493,3.2518,3.2557,3.2573,3.2656,3.2631,3.2636,3.2661,3.2659,3.2697,3.2701,3.2711,3.2769,3.278,3.2806,3.2764,3.2913,3.2916,3.2919,3.2937,3.2943,3.2948,0,0,0,0,0,3.2471,3.2521,3.252,3.2533,3.2606,3.2658,3.2667,3.2679,3.2663,3.2686,3.2705,3.27,3.2796,3.2774,3.2787,3.2814,3.2911,3.2915,3.2919,3.2935,3.2942,3.2947,0,0,0,0,0,0,3.2484,3.2526,3.2525,3.259,3.262,3.2657,3.2688,3.2687,3.2721,3.2718,3.273,3.2738,3.2791,3.2808,3.2783,3.2872,3.2851,3.2858,3.2859,3.2866,3.2871,3.2865,3.2768,0,0,0,0,0,3.2495,3.2535,3.2569,3.2623,3.2638,3.266,3.2684,3.269,3.2721,3.2734,3.2756,3.2785,3.2821,3.2845,3.288,3.294,3.2945,3.2964,3.297,3.2974,3.2979,3.3007,3.3014,3.2934,3.2934,3.2934,0,0,3.2517,3.2545,3.257,3.2627,3.2651,3.2689,3.2671,3.2714,3.2742,3.274,3.2791,3.2808,3.284,3.2896,3.2922,3.2912,3.3002,3.2979,3.2982,3.2984,3.3011,3.3019,3.3026,3.2936,3.2936,3.2935,0,0,3.2577,3.2604,3.2649,3.2673,3.271,3.2724,3.2734,3.277,3.2781,3.2833,3.2831,3.2863,3.2927,3.2948,3.2968,3.3031,3.3027,3.3042,3.3069,3.3096,3.3103,3.3108,3.3127,3.3134,3.3047,3.3047,3.3048,0,3.2599,3.266,3.2673,3.2715,3.2738,3.2737,3.2781,3.2804,3.2849,3.2864,3.2853,3.2929,3.2952,3.301,3.3025,3.3042,3.3052,3.3037,3.3101,3.3107,3.3112,3.313,3.3138,3.3049,3.3049,3.3049,3.3048,0,3.2683,3.2725,3.2757,3.28,3.2827,3.287,3.2886,3.2911,3.2914,3.2928,3.2978,3.3004,3.3043,3.3058,3.3062,3.3115,3.3108,3.3099,3.3078,3.3121,3.3138,3.3145,3.3051,3.305,3.305,3.305,0,0,3.2755,3.2803,3.2814,3.2832,3.287,3.2901,3.2942,3.298,3.2999,3.303,3.3062,3.3114,3.3105,3.3127,3.3133,3.3157,3.32,3.3145,3.3145,3.3151,3.3256,3.326,3.3269,3.3198,3.3199,3.3201,3.3252,0,3.2815,3.2889,3.29,3.2964,3.3,3.2998,3.3033,3.3059,3.3072,3.3102,3.3116,3.3151,3.3139,3.3151,3.3175,3.319,3.3221,3.3187,3.3224,3.3226,3.3214,3.3278,3.3284,3.3331,3.3259,3.326,3.3261,0,3.2897,3.2929,3.2996,3.3025,3.3041,3.3072,3.3105,3.3136,3.3163,3.3171,3.3193,3.3195,3.3234,3.3212,3.3264,3.324,3.3256,3.3265,3.3267,3.3269,3.3245,3.3279,3.3347,3.3353,3.3272,3.3272,3.3271,0,3.2937,3.2997,3.3044,3.306,3.3097,3.3118,3.3134,3.316,3.318,3.3209,3.3222,3.3255,3.3272,3.3296,3.3305,3.3289,3.3354,3.3334,3.3358,3.3358,3.3371,3.3369,3.344,3.3386,3.3386,3.3385,3.3385,0,3.3002,3.3042,3.3062,3.309,3.3134,3.3145,3.3187,3.3202,3.3224,3.3253,3.3254,3.3281,3.3293,3.3321,3.3328,3.3367,3.3376,3.338,3.3381,3.3379,3.3378,3.3388,3.3384,3.3387,3.3387,3.3387,3.3386,0,3.3054,3.3069,3.3119,3.3149,3.3157,3.3188,3.3212,3.3238,3.325,3.3286,3.3296,3.3314,3.3346,3.3358,3.3398,3.3403,3.3446,3.3446,3.3437,3.3437,3.3459,3.3455,3.3536,3.3546,3.3488,3.3488,3.3489,0,3.3093,3.3124,3.3156,3.3176,3.3192,3.3225,3.3245,3.3256,3.3277,3.3308,3.3329,3.3362,3.3388,3.3439,3.3455,3.3484,3.3482,3.3508,3.3487,3.3482,3.3479,3.3476,3.3477,3.3512,3.3512,3.3513,3.3513,0,3.316,3.3165,3.3195,3.3227,3.3251,3.3277,3.3302,3.3318,3.3331,3.3354,3.3387,3.3408,3.3447,3.3478,3.3507,3.3521,3.3518,3.352,3.3527,3.3523,3.3515,3.3516,3.3445,3.3518,3.3518,3.3517,3.3517,3.3517,3.3204,3.3229,3.3255,3.3288,3.3307,3.3329,3.3354,3.3368,3.3396,3.343,3.3434,3.3468,3.3491,3.353,3.3545,3.357,3.3563,3.3573,3.3575,3.3577,3.3577,3.3513,3.3576,3.3576,3.3576,3.3576,3.3576,0,3.3267,3.3283,3.3313,3.3347,3.3371,3.3368,3.3394,3.3414,3.3445,3.3467,3.3492,3.3528,3.3557,3.3574,3.3602,3.3619,3.3618,3.3625,3.3623,3.3625,3.3584,3.3574,3.3625,3.3625,3.3625,3.3625,3.3625,3.3625,3.3303,3.3344,3.3352,3.3401,3.3417,3.3451,3.3466,3.3485,3.3502,3.3542,3.3566,3.3577,3.3596,3.3625,3.365,3.3654,3.3663,3.3671,3.3674,3.3634,3.3629,3.3624,3.3614,3.3674,3.3674,3.3713,3.3713,3.3713]}]]